Weather History for KCUB - December, 2013

Change the Weather History Date:

Saturday, December 7, 2013

  Actual Average Record
Temperature  
Mean Temperature 58 °F 50 °F  
Max Temperature 69 °F 61 °F 79 °F (1998)
Min Temperature 46 °F 39 °F 22 °F (2010)
Degree Days  
Heating Degree Days 7 15  
Month to date heating degree days 43 101  
Since 1 July heating degree days 457 472  
Cooling Degree Days 0 0  
Month to date cooling degree days 6 0  
Year to date cooling degree days 2229 2256  
Growing Degree Days 8 (Base 50)    
Moisture  
Dew Point 56 °F    
Average Humidity 91    
Maximum Humidity 96    
Minimum Humidity 83    
Precipitation  
Precipitation 0.16 in 0.11 in 0.18 in (2011)
Month to date precipitation 1.25 0.77  
Year to date precipitation 48.12 42.97  
Sea Level Pressure  
Sea Level Pressure 30.23 in    
Wind  
Wind Speed 5 mph (SE)    
Max Wind Speed 12 mph    
Max Gust Speed 20 mph    
Visibility 8 miles    
Events Rain    
T = Trace of Precipitation, MM = Missing Value Source: NWS Daily Summary

Daily Weather History Graph

Daily Weather History Graph

Search for Another Location

Airport or City:

Trip Planner

Search our weather history database for the weather conditions in past years. The results will help you decide how hot, cold, wet, or windy it might be!

Date:

Astronomy

Dec. 07, 2013 Rise Set
Actual Time 7:16 AM EST 5:14 PM EST
Civil Twilight 6:48 AM EST 5:42 PM EST
Nautical Twilight 6:17 AM EST 6:13 PM EST
Astronomical Twilight 5:47 AM EST 6:43 PM EST
Moon 11:09 AM EST (12/7) 10:44 PM EST (12/7)
Length of Visible Light 10h 53m
Length of Day
9h 58m
Waxing Crescent, 29% of the Moon is Illuminated
Dec 7
Waxing Crescent
Dec 9
First Quarter
Dec 17
Full
Dec 25
Last Quarter
Jan 1
New

Hourly Weather History & Observations

Time (EST) Temp. Windchill Dew Point Humidity Pressure Visibility Wind Dir Wind Speed Gust Speed Precip Events Conditions
12:53 AM 69.1 °F - 64.0 °F 84% 30.06 in 10.0 mi SSW 8.1 mph - N/A   Clear
1:53 AM 69.1 °F - 64.0 °F 84% 30.07 in 10.0 mi SSW 6.9 mph - N/A   Clear
2:53 AM 69.1 °F - 64.0 °F 84% 30.07 in 10.0 mi SSW 9.2 mph - N/A   Overcast
3:16 AM 69.1 °F - 64.0 °F 84% 30.08 in 10.0 mi SSW 5.8 mph - N/A   Overcast
3:53 AM 69.1 °F - 64.9 °F 87% 30.09 in 10.0 mi SW 5.8 mph - N/A   Overcast
4:53 AM 69.1 °F - 64.9 °F 87% 30.09 in 10.0 mi SW 5.8 mph - N/A   Overcast
5:53 AM 68.0 °F - 64.9 °F 90% 30.09 in 10.0 mi SSW 8.1 mph - N/A   Overcast
6:12 AM 68.0 °F - 66.0 °F 93% 30.10 in 6.0 mi SSW 6.9 mph - 0.01 in Rain Light Rain
6:48 AM 66.2 °F - 66.2 °F 100% 30.11 in 5.0 mi South 4.6 mph - 0.04 in Rain Light Rain
6:49 AM 66.9 °F - 66.0 °F 97% 30.10 in 6.0 mi South 3.5 mph - 0.04 in Rain Light Rain
6:57 AM 66.9 °F - 66.0 °F 97% 30.11 in 6.0 mi SSW 5.8 mph - 0.00 in Rain Rain
7:04 AM 66.9 °F - 66.0 °F 97% 30.12 in 6.0 mi SSW 4.6 mph - 0.01 in Rain Light Rain
7:24 AM 66.9 °F - 66.0 °F 97% 30.13 in 8.0 mi Calm Calm - 0.01 in   Overcast
7:53 AM 66.9 °F - 66.0 °F 97% 30.14 in 6.0 mi Calm Calm - 0.02 in Rain Light Rain
8:53 AM 68.0 °F - 66.0 °F 93% 30.17 in 9.0 mi NW 4.6 mph - 0.00 in   Overcast
9:36 AM 68.0 °F - 66.9 °F 96% 30.20 in 10.0 mi Calm Calm - N/A   Overcast
9:53 AM 68.0 °F - 66.0 °F 93% 30.20 in 10.0 mi WNW 3.5 mph - N/A   Overcast
10:04 AM 68.0 °F - 66.9 °F 96% 30.20 in 4.0 mi Calm Calm - N/A   Overcast
10:53 AM 69.1 °F - 66.0 °F 90% 30.21 in 10.0 mi North 3.5 mph - N/A   Overcast
10:58 AM 69.1 °F - 66.0 °F 90% 30.22 in 10.0 mi Calm Calm - N/A   Overcast
11:53 AM 60.1 °F - 57.9 °F 93% 30.22 in 9.0 mi NNE 9.2 mph 18.4 mph N/A   Overcast
11:56 AM 59.0 °F - 57.0 °F 93% 30.23 in 7.0 mi NE 8.1 mph 18.4 mph N/A   Overcast
12:18 PM 55.9 °F - 53.1 °F 90% 30.23 in 10.0 mi ENE 9.2 mph 16.1 mph N/A   Overcast
12:53 PM 54.0 °F - 52.0 °F 93% 30.24 in 5.0 mi Variable 5.8 mph - N/A   Overcast
1:21 PM 53.1 °F - 52.0 °F 96% 30.25 in 2.0 mi Variable 5.8 mph - 0.02 in Rain Light Rain
1:36 PM 53.1 °F - 51.1 °F 93% 30.25 in 5.0 mi ENE 8.1 mph - 0.02 in Rain Light Rain
1:53 PM 52.0 °F - 50.0 °F 93% 30.25 in 10.0 mi Variable 6.9 mph - 0.03 in   Overcast
2:32 PM 52.0 °F - 50.0 °F 93% 30.26 in 10.0 mi Variable 5.8 mph - 0.03 in   Overcast
2:48 PM 51.8 °F - 48.2 °F 88% 30.25 in 10.0 mi East 6.9 mph - 0.03 in   Overcast
2:53 PM 52.0 °F - 50.0 °F 93% 30.25 in 10.0 mi Variable 6.9 mph - 0.03 in   Overcast
3:01 PM 52.0 °F - 50.0 °F 93% 30.25 in 10.0 mi Variable 5.8 mph - N/A   Overcast
3:53 PM 52.0 °F - 48.9 °F 89% 30.27 in 10.0 mi Variable 3.5 mph - N/A   Overcast
4:53 PM 51.1 °F - 46.9 °F 86% 30.30 in 10.0 mi Variable 4.6 mph - N/A   Overcast
5:43 PM 48.9 °F - 46.0 °F 90% 30.32 in 4.0 mi Variable 5.8 mph - 0.03 in Rain Rain
5:53 PM 48.9 °F - 46.9 °F 93% 30.32 in 6.0 mi Variable 3.5 mph - 0.03 in Rain Light Rain
6:34 PM 48.9 °F - 46.0 °F 90% 30.33 in 7.0 mi ENE 9.2 mph - 0.01 in   Overcast
6:53 PM 48.0 °F - 46.0 °F 93% 30.34 in 10.0 mi Variable 5.8 mph - 0.01 in Rain Light Rain
7:04 PM 48.0 °F - 45.0 °F 89% 30.34 in 10.0 mi ENE 5.8 mph - 0.00 in   Overcast
7:21 PM 48.0 °F - 46.0 °F 93% 30.35 in 10.0 mi East 4.6 mph - 0.00 in   Overcast
7:53 PM 48.0 °F - 45.0 °F 89% 30.37 in 8.0 mi ENE 5.8 mph - 0.00 in   Overcast
8:16 PM 48.0 °F - 45.0 °F 89% 30.38 in 10.0 mi Variable 4.6 mph - N/A   Overcast
8:53 PM 48.0 °F - 45.0 °F 89% 30.37 in 10.0 mi Variable 6.9 mph - N/A   Overcast
9:53 PM 48.0 °F - 44.1 °F 86% 30.39 in 10.0 mi Variable 3.5 mph - N/A   Overcast
10:53 PM 46.9 °F - 44.1 °F 90% 30.39 in 7.0 mi ENE 5.8 mph - N/A   Overcast
11:45 PM 46.9 °F - 44.1 °F 90% 30.40 in 7.0 mi NE 5.8 mph - N/A   Overcast
11:53 PM 46.0 °F 41.9 °F 44.1 °F 93% 30.40 in 5.0 mi ENE 8.1 mph - N/A   Overcast